SL-16 DEB, 44574

Orbit data source: Space-Track

SL-16 DEB, 44574 is space debris in LEO originally from a launch on Fri, 25 Dec 1992 UTC launched from the Tyuratam Missile And Space Complex (TTMTR). Debris objects in space refer to the collection of defunct objects orbiting the Earth. Examples of debris include non-operational satellites, rocket bodies, and fragments generated from explosions, collisions, or faulty payload assembly.

Loading next visibility...
Identifier
44574, 1992-093LW
Orbit
LEO
Last TLE update
4 hours ago
Origin
Manufacturer
Unknown
Mission
Spacecraft
Bus & Motor
Unknown
Mass
Unknown
Launch date (UTC)
1992-12-25 (33 years ago)
Launch vehicle
Unknown
Launch site
Tyuratam Missile And Space Complex (TTMTR)
Object type
Payload
Rocket body
Debris
Shape & HBR
Unknown
Radar Cross Section
Small (<0.1 m²)

Expand to show TLE details & history

TLE from 4 hours ago
0 SL-16 DEB
1 44574U 92093LW  25190.18995463  .00003299  00000-0  88074-3 0  9992
2 44574  71.1204 126.4713 0090529 199.3563 227.8452 14.46693956665040
Epoch: 2025-07-09T04:33Z
TLE epoch observation values (Epoch: 2025-07-09T04:33:32.08Z)
Latitude
60.25755°
Longitude
167.25065°
Altitude
789.744 km
Speed
7.442 km/s
True Right ascension
10h 52m 02s
True Declination
60° 06' 35"
Sunlit
Object was in daylight at epoch
Visualization orbit readout
Latitude
56.15223°
Longitude
-80.08945°
Altitude
733.932 km
Speed
7.5 km/s
Apparent Right ascension
11h 50m 11s
Apparent Declination
37° 28' 45"
Sunlit
Object is in daylight
Visualization observer readout
Local Sidereal Time
20:16:49
Azimuth
320.443° NNW
Elevation
1.549°
Doppler factor
1
Orbital elements
Apogee altitude
798.737 km
Perigee altitude
669.96 km
Semi-major axis
7,112.486 km
Eccentricity
0.00905
Inclination
71.1204°
RAAN
126.4713°
Arg. of periapsis
199.3563°
True anomaly
Unknown
Mean anomaly
227.8452°
Eccentric anomaly
Unknown
Mean motion
3.61835 °/min
Orbital period
99.49 mins
BSTAR
0.00088074
Loading maneuver chart data...
Loading SW <> Apogee altitude chart data...
Loading historical data...
Loading historical data...
Loading historical data...
Loading historical data...
Loading historical data...
Loading historical data...
Loading historical data...

SL-16 DEB Visibility forecast

Observer location: undefined°, undefined°

Span
Click to sort rows by Start time (UTC) header in descending order
Start Az.
Max El. time (UTC)
Max El. Az.
Max El.
End time (UTC)
End Az.
6 mins2025-07-09 08:10:12.952Z301.799° NW2025-07-09 08:13:12.952Z259.729° W19.886°2025-07-09 08:16:12.952Z216.029° SW
9 mins2025-07-09 20:58:12.952Z191.188° SSW2025-07-09 21:02:12.952Z119.792° SE43.416°2025-07-09 21:07:12.952Z27.846° NE
5 mins2025-07-09 22:42:12.952Z278.117° WNW2025-07-09 22:44:12.952Z302.85° NW16.256°2025-07-09 22:47:12.952Z340.693° N
6 mins2025-07-10 05:42:12.952Z16.072° NNE2025-07-10 05:45:12.952Z61.193° ENE19.55°2025-07-10 05:48:12.952Z101.314° ESE
8 mins2025-07-10 07:23:12.952Z319.693° NNW2025-07-10 07:27:12.952Z237.509° WSW34.75°2025-07-10 07:31:12.952Z181.75° SSW
|